RYR7HJ LEVC-LEBL

Flight info

Callsign RYR7HJ
Flight time 0h 36m
Altitude 24000
Route SOPET N608 MATEX
Aircraft B38M/M-SDE1FGHILORVWXY/HB1

Departure

Time 2026-05-06 19:37
Airport Valencia Airport (LEVC)

Arrival

Time 2026-05-06 20:13
Airport Josep Tarradellas Barcelona-El Prat Airport (LEBL)
Time Latitude Longitude Altitude Speed Heading
2026-05-06 19:17 39.49003 -0.47224 211 ft 0 kts 17°
2026-05-06 19:29 39.48995 -0.47228 212 ft 4 kts 17°
2026-05-06 19:29 39.48968 -0.47238 212 ft 4 kts 16°
2026-05-06 19:30 39.48942 -0.47247 215 ft 4 kts 14°
2026-05-06 19:30 39.48918 -0.47254 212 ft 3 kts
2026-05-06 19:30 39.48902 -0.47250 212 ft 2 kts 338°
2026-05-06 19:30 39.48896 -0.47247 212 ft 0 kts 336°
2026-05-06 19:32 39.48897 -0.47248 212 ft 1 kts 336°
2026-05-06 19:32 39.48912 -0.47261 221 ft 5 kts 316°
2026-05-06 19:33 39.48948 -0.47344 216 ft 16 kts 296°
2026-05-06 19:33 39.49003 -0.47488 214 ft 19 kts 296°
2026-05-06 19:33 39.49058 -0.47655 214 ft 21 kts 271°
2026-05-06 19:33 39.49028 -0.47850 214 ft 23 kts 266°
2026-05-06 19:34 39.49088 -0.48047 214 ft 25 kts 296°
2026-05-06 19:34 39.49168 -0.48255 217 ft 27 kts 296°
2026-05-06 19:34 39.49252 -0.48480 212 ft 29 kts 296°
2026-05-06 19:34 39.49343 -0.48718 221 ft 30 kts 296°
2026-05-06 19:35 39.49439 -0.48967 215 ft 32 kts 296°
2026-05-06 19:35 39.49540 -0.49233 216 ft 34 kts 296°
2026-05-06 19:35 39.49645 -0.49512 214 ft 35 kts 296°
2026-05-06 19:35 39.49757 -0.49803 216 ft 37 kts 296°
2026-05-06 19:36 39.49773 -0.49967 219 ft 11 kts 210°
2026-05-06 19:36 39.49702 -0.50015 216 ft 11 kts 206°
2026-05-06 19:36 39.49631 -0.50002 216 ft 13 kts 121°
2026-05-06 19:36 39.49577 -0.49853 215 ft 34 kts 116°
2026-05-06 19:37 39.49339 -0.49225 213 ft 119 kts 116°
2026-05-06 19:37 39.48874 -0.47992 324 ft 178 kts 115°
2026-05-06 19:37 39.48311 -0.46485 1202 ft 189 kts 116°
2026-05-06 19:37 39.47711 -0.44985 2396 ft 187 kts 117°
2026-05-06 19:38 39.46969 -0.43563 3165 ft 200 kts 136°
2026-05-06 19:38 39.45850 -0.42357 3837 ft 218 kts 142°
2026-05-06 19:38 39.44652 -0.41030 4481 ft 238 kts 129°
2026-05-06 19:38 39.43714 -0.39203 5341 ft 245 kts 123°
2026-05-06 19:39 39.42771 -0.37344 6231 ft 257 kts 123°
2026-05-06 19:39 39.41757 -0.35362 6942 ft 272 kts 123°
2026-05-06 19:39 39.40673 -0.33265 7689 ft 283 kts 124°
2026-05-06 19:39 39.39739 -0.31019 8605 ft 289 kts 104°
2026-05-06 19:40 39.39733 -0.28422 9503 ft 291 kts 71°
2026-05-06 19:40 39.40763 -0.26191 10297 ft 295 kts 41°
2026-05-06 19:40 39.42583 -0.24919 10814 ft 306 kts 10°
2026-05-06 19:40 39.44753 -0.24837 11285 ft 321 kts 353°
2026-05-06 19:41 39.47051 -0.24901 11727 ft 340 kts
2026-05-06 19:41 39.49432 -0.24441 12327 ft 352 kts
2026-05-06 19:41 39.51878 -0.23953 13122 ft 356 kts
2026-05-06 19:41 39.54342 -0.23454 13923 ft 362 kts
2026-05-06 19:42 39.56850 -0.22944 14616 ft 367 kts
2026-05-06 19:42 39.59353 -0.22433 15329 ft 371 kts
2026-05-06 19:42 39.61918 -0.21908 16040 ft 376 kts
2026-05-06 19:42 39.64523 -0.21373 16745 ft 381 kts
2026-05-06 19:43 39.67072 -0.20327 17436 ft 391 kts 25°
2026-05-06 19:43 39.69304 -0.18254 18119 ft 400 kts 41°
2026-05-06 19:43 39.71332 -0.15744 18682 ft 405 kts 41°
2026-05-06 19:43 39.73376 -0.13191 19276 ft 409 kts 42°
2026-05-06 19:44 39.75430 -0.10597 19861 ft 413 kts 42°
2026-05-06 19:44 39.77499 -0.07970 20433 ft 417 kts 42°
2026-05-06 19:44 39.79584 -0.05316 21006 ft 421 kts 42°
2026-05-06 19:44 39.81701 -0.02646 21555 ft 424 kts 39°
2026-05-06 19:45 39.84152 -0.00547 22096 ft 422 kts 21°
2026-05-06 19:45 39.86926 0.00709 22603 ft 424 kts 13°
2026-05-06 19:45 39.89763 0.01829 23120 ft 427 kts 13°
2026-05-06 19:45 39.92593 0.02916 23646 ft 431 kts 13°
2026-05-06 19:46 39.95493 0.04010 23927 ft 437 kts 12°
2026-05-06 19:46 39.98453 0.05115 23934 ft 449 kts 12°
2026-05-06 19:46 40.01495 0.06248 23935 ft 459 kts 12°
2026-05-06 19:46 40.04600 0.07404 23942 ft 467 kts 12°
2026-05-06 19:47 40.07737 0.08573 23956 ft 470 kts 12°
2026-05-06 19:47 40.10894 0.09750 23967 ft 471 kts 12°
2026-05-06 19:47 40.14048 0.10927 23967 ft 471 kts 12°
2026-05-06 19:47 40.17201 0.12105 23979 ft 471 kts 12°
2026-05-06 19:48 40.20345 0.13280 23969 ft 471 kts 12°
2026-05-06 19:48 40.23470 0.14449 23969 ft 456 kts 12°
2026-05-06 19:48 40.26426 0.15556 23987 ft 437 kts 12°
2026-05-06 19:48 40.29293 0.16630 23990 ft 420 kts 12°
2026-05-06 19:49 40.32090 0.17677 23985 ft 416 kts 12°
2026-05-06 19:49 40.34869 0.18720 23966 ft 416 kts 12°
2026-05-06 19:49 40.37649 0.19764 23963 ft 415 kts 12°
2026-05-06 19:49 40.40428 0.20808 23968 ft 415 kts 12°
2026-05-06 19:50 40.43206 0.21853 23965 ft 415 kts 11°
2026-05-06 19:50 40.45985 0.22899 23966 ft 415 kts 11°
2026-05-06 19:50 40.48724 0.23930 23963 ft 414 kts 11°
2026-05-06 19:50 40.51501 0.25084 23951 ft 426 kts 19°
2026-05-06 19:51 40.54091 0.27127 23948 ft 446 kts 36°
2026-05-06 19:51 40.56258 0.30132 23946 ft 462 kts 53°
2026-05-06 19:51 40.57754 0.33928 23942 ft 475 kts 69°
2026-05-06 19:51 40.58974 0.38011 23944 ft 482 kts 66°
2026-05-06 19:52 40.60275 0.42111 23946 ft 487 kts 66°
2026-05-06 19:52 40.61589 0.46227 23949 ft 488 kts 66°
2026-05-06 19:52 40.62903 0.50348 23955 ft 488 kts 66°
2026-05-06 19:52 40.64216 0.54471 23952 ft 488 kts 66°
2026-05-06 19:53 40.65528 0.58599 23954 ft 489 kts 66°
2026-05-06 19:53 40.66839 0.62728 23952 ft 489 kts 66°
2026-05-06 19:53 40.68149 0.66861 23950 ft 489 kts 66°
2026-05-06 19:53 40.69459 0.71003 23950 ft 489 kts 66°
2026-05-06 19:54 40.70767 0.75141 23951 ft 489 kts 66°
2026-05-06 19:54 40.72075 0.79289 23952 ft 489 kts 66°
2026-05-06 19:54 40.73383 0.83439 23951 ft 490 kts 66°
2026-05-06 19:54 40.74673 0.87540 23952 ft 490 kts 66°
2026-05-06 19:55 40.75979 0.91698 23952 ft 490 kts 66°
2026-05-06 19:55 40.77280 0.95847 23949 ft 490 kts 66°
2026-05-06 19:55 40.78586 1.00018 23951 ft 490 kts 66°
2026-05-06 19:55 40.79889 1.04185 23951 ft 490 kts 66°
2026-05-06 19:56 40.81191 1.08358 23950 ft 491 kts 66°
2026-05-06 19:56 40.82491 1.12529 23952 ft 491 kts 66°
2026-05-06 19:56 40.83789 1.16700 23954 ft 491 kts 66°
2026-05-06 19:56 40.85054 1.20783 23915 ft 483 kts 66°
2026-05-06 19:57 40.86320 1.24875 23709 ft 477 kts 66°
2026-05-06 19:57 40.87569 1.28909 23121 ft 472 kts 66°
2026-05-06 19:57 40.88811 1.32923 22446 ft 468 kts 66°
2026-05-06 19:57 40.90038 1.36896 21858 ft 462 kts 66°
2026-05-06 19:58 40.91240 1.40796 21137 ft 455 kts 67°
2026-05-06 19:58 40.92424 1.44638 20109 ft 448 kts 67°
2026-05-06 19:58 40.93575 1.48378 19139 ft 440 kts 67°
2026-05-06 19:58 40.94727 1.52133 18201 ft 431 kts 67°
2026-05-06 19:59 40.95832 1.55737 17185 ft 423 kts 67°
2026-05-06 19:59 40.96923 1.59302 16211 ft 414 kts 67°
2026-05-06 19:59 40.97997 1.62813 15276 ft 405 kts 67°
2026-05-06 19:59 40.99040 1.66231 14390 ft 397 kts 67°
2026-05-06 20:00 41.00063 1.69585 13507 ft 389 kts 67°
2026-05-06 20:00 41.01064 1.72873 12631 ft 380 kts 67°
2026-05-06 20:00 41.02030 1.76056 12095 ft 363 kts 67°
2026-05-06 20:00 41.02951 1.79096 11598 ft 348 kts 67°
2026-05-06 20:01 41.03836 1.82019 11130 ft 335 kts 66°
2026-05-06 20:01 41.04680 1.84809 10832 ft 317 kts 66°
2026-05-06 20:01 41.05467 1.87416 10638 ft 298 kts 66°
2026-05-06 20:01 41.06218 1.89899 10473 ft 285 kts 66°
2026-05-06 20:02 41.06948 1.92314 10289 ft 281 kts 66°
2026-05-06 20:02 41.07680 1.94735 10120 ft 285 kts 66°
2026-05-06 20:02 41.08424 1.97194 9912 ft 289 kts 66°
2026-05-06 20:02 41.09172 1.99669 9541 ft 289 kts 66°
2026-05-06 20:03 41.09918 2.02138 9163 ft 287 kts 66°
2026-05-06 20:03 41.10657 2.04591 8815 ft 285 kts 66°
2026-05-06 20:03 41.11390 2.07021 8466 ft 282 kts 66°
2026-05-06 20:03 41.12105 2.09399 8134 ft 279 kts 66°
2026-05-06 20:04 41.12823 2.11783 7794 ft 277 kts 66°
2026-05-06 20:04 41.13533 2.14147 7466 ft 274 kts 66°
2026-05-06 20:04 41.14238 2.16496 7138 ft 272 kts 66°
2026-05-06 20:04 41.14936 2.18820 6809 ft 270 kts 66°
2026-05-06 20:05 41.15627 2.21128 6487 ft 268 kts 66°
2026-05-06 20:05 41.16315 2.23424 6143 ft 266 kts 67°
2026-05-06 20:05 41.17016 2.25694 5806 ft 264 kts 61°
2026-05-06 20:05 41.18178 2.27500 5501 ft 256 kts 32°
2026-05-06 20:06 41.19758 2.28386 5275 ft 248 kts 11°
2026-05-06 20:06 41.21469 2.28829 4998 ft 253 kts
2026-05-06 20:06 41.23217 2.29250 4684 ft 257 kts
2026-05-06 20:06 41.24959 2.29652 4508 ft 249 kts
2026-05-06 20:07 41.26639 2.30030 4369 ft 240 kts
2026-05-06 20:07 41.28244 2.30384 4279 ft 228 kts
2026-05-06 20:07 41.29770 2.30716 4126 ft 215 kts
2026-05-06 20:07 41.31194 2.31024 3974 ft 200 kts
2026-05-06 20:08 41.32528 2.31311 3839 ft 195 kts
2026-05-06 20:08 41.33875 2.31592 3697 ft 196 kts
2026-05-06 20:08 41.34782 2.31515 3511 ft 193 kts 340°
2026-05-06 20:08 41.35846 2.30529 3200 ft 187 kts 302°
2026-05-06 20:09 41.36181 2.28378 2882 ft 178 kts 264°
2026-05-06 20:09 41.36082 2.27285 2729 ft 173 kts 258°
2026-05-06 20:09 41.35783 2.25787 2511 ft 163 kts 249°
2026-05-06 20:09 41.35376 2.24444 2323 ft 152 kts 245°
2026-05-06 20:10 41.34949 2.23168 2111 ft 152 kts 244°
2026-05-06 20:10 41.34512 2.21890 1906 ft 152 kts 244°
2026-05-06 20:10 41.34076 2.20612 1703 ft 150 kts 244°
2026-05-06 20:10 41.33648 2.19359 1518 ft 149 kts 244°
2026-05-06 20:11 41.33221 2.18109 1321 ft 148 kts 244°
2026-05-06 20:11 41.32794 2.16859 1122 ft 149 kts 244°
2026-05-06 20:11 41.32364 2.15601 918 ft 150 kts 244°
2026-05-06 20:11 41.31931 2.14335 706 ft 151 kts 244°
2026-05-06 20:12 41.31497 2.13066 504 ft 151 kts 245°
2026-05-06 20:12 41.31061 2.11791 298 ft 151 kts 244°
2026-05-06 20:12 41.30626 2.10519 94 ft 151 kts 244°
2026-05-06 20:12 41.30205 2.09317 23 ft 135 kts 244°
2026-05-06 20:13 41.29909 2.08437 27 ft 70 kts 245°
2026-05-06 20:13 41.29754 2.07919 19 ft 50 kts 262°
2026-05-06 20:13 41.29808 2.07606 16 ft 12 kts 332°
2026-05-06 20:13 41.29884 2.07560 19 ft 13 kts 335°
2026-05-06 20:14 41.29973 2.07541 21 ft 13 kts 31°
2026-05-06 20:14 41.30025 2.07645 21 ft 15 kts 64°
2026-05-06 20:14 41.30072 2.07779 22 ft 17 kts 66°
2026-05-06 20:14 41.30133 2.07896 21 ft 10 kts 10°
2026-05-06 20:15 41.30183 2.07876 24 ft 7 kts 334°
2026-05-06 20:15 41.30223 2.07828 23 ft 9 kts 296°
2026-05-06 20:15 41.30229 2.07793 25 ft 2 kts 279°
2026-05-06 20:15 41.30230 2.07785 25 ft 0 kts 279°